Powrót do katalogu

FLOCK 4BE 6

AktywnyNaukaSSO
NORAD 60516·PAYLOAD·🇺🇸 United States

Wystrzelony Aug 16, 2024 z Vandenberg Space Force Base

Loading…

Następne Przeloty (najbliższe 24 godziny)

TLE

ŚwieżeSource: CelesTrak SupGP

Epoka: Sep 14, 2026, 18:45 UTC

1 60516C 24149AV  26257.78145833  .00031046  00000+0  72491-3 0  2575
2 60516  97.3739 342.2386 0002616 349.0345 223.2317 15.42209140    18

Śledź FLOCK 4BE 6 w czasie rzeczywistym z AllMySat

Download on the App Store